Simultaneous Nadir Overpasses (SNOs) Predictions

Prediction of SNOs between NOAA-19 and TERRA Satellite Orbit:

Table of predicted SNOs for the next 14.0 days since TLE Epoch: 2/16/2019
Index Date (NOAA-19) Time (NOAA-19) Lat,Lon (NOAA-19) SZA (NOAA-19 ) Date (TERRA) Time (TERRA) Lat,Lon (TERRA) SZA (TERRA ) Distance(km) Time Diff (sec)
1 02/17/2019 09:16:12 -78.07,-118.97 89.49 02/17/2019 09:16:56 -78.08,-118.84 89.47 3.00 44
2 02/17/2019 10:07:06 78.01, 48.65 90.46 02/17/2019 10:06:23 78.02, 48.54 90.46 2.79 43
3 02/19/2019 14:49:36 78.08, -22.31 89.74 02/19/2019 14:50:39 78.09, -22.21 89.77 2.42 63
4 02/19/2019 15:40:40 -78.03, 145.23 90.31 02/19/2019 15:40:08 -78.02, 145.10 90.34 3.29 32
5 02/21/2019 20:23:12 -78.18, 73.82 91.00 02/21/2019 20:24:24 -78.09, 74.35 91.03 15.54 72
6 02/21/2019 21:14:04 78.05,-118.13 88.91 02/21/2019 21:13:50 78.08,-118.08 88.94 3.43 14
7 02/24/2019 02:47:38 -78.07, -21.57 91.88 02/24/2019 02:47:35 -78.08, -21.50 91.87 1.91 3
8 02/26/2019 08:21:02 78.09, 75.07 87.31 02/26/2019 08:21:18 78.09, 75.11 87.32 0.83 16
9 02/26/2019 09:11:59 -77.77,-115.92 92.89 02/26/2019 09:10:51 -77.85,-118.35 92.99 57.88 68
10 02/28/2019 13:54:35 -78.08, 171.78 93.52 02/28/2019 13:55:03 -78.10, 171.71 93.51 2.29 28




NCC Satellite Simultaneous Nadir Overpasses (SNOs) Prediction Service
